Year,Month,Day,Hour,Minute,Value (Times are PST for temperature in C)
2009,09,24,00,00,17.00
2009,09,24,00,01,17.00
2009,09,24,00,02,17.00
2009,09,24,00,03,17.00
2009,09,24,00,04,17.00
2009,09,24,00,05,17.00
2009,09,24,00,06,17.00
2009,09,24,00,07,17.00
2009,09,24,00,08,17.00
2009,09,24,00,09,17.00
2009,09,24,00,10,17.00
2009,09,24,00,11,17.00
2009,09,24,00,12,17.00
2009,09,24,00,13,17.00
2009,09,24,00,14,17.00
2009,09,24,00,15,17.00
2009,09,24,00,16,17.00
2009,09,24,00,17,17.00
2009,09,24,00,18,16.90
2009,09,24,00,19,16.90
2009,09,24,00,20,16.90
2009,09,24,00,21,16.80
2009,09,24,00,22,16.80
2009,09,24,00,23,16.70
2009,09,24,00,24,16.70
2009,09,24,00,25,16.70
2009,09,24,00,26,16.60
2009,09,24,00,27,16.60
2009,09,24,00,28,16.60
2009,09,24,00,29,16.40
2009,09,24,00,30,16.40
2009,09,24,00,31,16.40
2009,09,24,00,32,16.40
2009,09,24,00,33,16.40
2009,09,24,00,34,16.40
2009,09,24,00,35,16.30
2009,09,24,00,36,16.30
2009,09,24,00,37,16.30
2009,09,24,00,38,16.30
2009,09,24,00,39,16.30
2009,09,24,00,40,16.20
2009,09,24,00,41,16.20
2009,09,24,00,42,16.20
2009,09,24,00,43,16.10
2009,09,24,00,44,16.10
2009,09,24,00,45,16.10
2009,09,24,00,46,16.10
2009,09,24,00,47,16.10
2009,09,24,00,48,16.00
2009,09,24,00,49,15.90
2009,09,24,00,50,15.90
2009,09,24,00,51,15.90
2009,09,24,00,52,15.80
2009,09,24,00,53,15.80
2009,09,24,00,54,15.80
2009,09,24,00,55,15.80
2009,09,24,00,56,15.80
2009,09,24,00,57,15.80
2009,09,24,00,58,15.70
2009,09,24,00,59,15.70
2009,09,24,01,00,15.60
2009,09,24,01,01,15.60
2009,09,24,01,02,15.60
2009,09,24,01,03,15.60
2009,09,24,01,04,15.50
2009,09,24,01,05,15.50
2009,09,24,01,06,15.50
2009,09,24,01,07,15.50
2009,09,24,01,08,15.40
2009,09,24,01,09,15.40
2009,09,24,01,10,15.40
2009,09,24,01,11,15.30
2009,09,24,01,12,15.30
2009,09,24,01,13,15.30
2009,09,24,01,14,15.30
2009,09,24,01,15,15.30
2009,09,24,01,16,15.30
2009,09,24,01,17,15.30
2009,09,24,01,18,15.30
2009,09,24,01,19,15.30
2009,09,24,01,20,15.30
2009,09,24,01,21,15.30
2009,09,24,01,22,15.30
2009,09,24,01,23,15.30
2009,09,24,01,24,15.30
2009,09,24,01,25,15.30
2009,09,24,01,26,15.30
2009,09,24,01,27,15.30
2009,09,24,01,28,15.30
2009,09,24,01,29,15.20
2009,09,24,01,30,15.20
2009,09,24,01,31,15.20
2009,09,24,01,32,15.20
2009,09,24,01,33,15.20
2009,09,24,01,34,15.20
2009,09,24,01,35,15.10
2009,09,24,01,36,15.10
2009,09,24,01,37,15.10
2009,09,24,01,38,15.00
2009,09,24,01,39,15.00
2009,09,24,01,40,15.00
2009,09,24,01,41,15.00
2009,09,24,01,42,14.90
2009,09,24,01,43,14.90
2009,09,24,01,44,14.90
2009,09,24,01,45,14.90
2009,09,24,01,46,14.90
2009,09,24,01,47,14.90
2009,09,24,01,48,14.90
2009,09,24,01,49,14.90
2009,09,24,01,50,14.90
2009,09,24,01,51,14.90
2009,09,24,01,52,14.90
2009,09,24,01,53,14.90
2009,09,24,01,54,14.90
2009,09,24,01,55,14.90
2009,09,24,01,56,14.90
2009,09,24,01,57,14.90
2009,09,24,01,58,14.90
2009,09,24,01,59,14.90
2009,09,24,02,00,14.90
2009,09,24,02,01,14.90
2009,09,24,02,02,14.90
2009,09,24,02,03,14.90
2009,09,24,02,04,14.90
2009,09,24,02,05,14.90
2009,09,24,02,06,14.90
2009,09,24,02,07,14.90
2009,09,24,02,08,14.90
2009,09,24,02,09,14.90
2009,09,24,02,10,14.90
2009,09,24,02,11,14.90
2009,09,24,02,12,14.90
2009,09,24,02,13,14.90
2009,09,24,02,14,14.90
2009,09,24,02,15,14.90
2009,09,24,02,16,14.90
2009,09,24,02,17,14.90
2009,09,24,02,18,14.90
2009,09,24,02,19,14.90
2009,09,24,02,20,14.90
2009,09,24,02,21,14.90
2009,09,24,02,22,14.90
2009,09,24,02,23,14.90
2009,09,24,02,24,14.90
2009,09,24,02,25,14.90
2009,09,24,02,26,15.00
2009,09,24,02,27,15.00
2009,09,24,02,28,15.00
2009,09,24,02,29,15.00
2009,09,24,02,30,15.00
2009,09,24,02,31,14.90
2009,09,24,02,32,14.90
2009,09,24,02,33,14.90
2009,09,24,02,34,14.90
2009,09,24,02,35,14.90
2009,09,24,02,36,14.90
2009,09,24,02,37,14.90
2009,09,24,02,38,14.90
2009,09,24,02,39,14.90
2009,09,24,02,40,14.90
2009,09,24,02,41,14.90
2009,09,24,02,42,15.00
2009,09,24,02,43,15.00
2009,09,24,02,44,15.00
2009,09,24,02,45,15.10
2009,09,24,02,46,15.10
2009,09,24,02,47,15.20
2009,09,24,02,48,15.20
2009,09,24,02,49,15.20
2009,09,24,02,50,15.20
2009,09,24,02,51,15.20
2009,09,24,02,52,15.20
2009,09,24,02,53,15.20
2009,09,24,02,54,15.20
2009,09,24,02,55,15.20
2009,09,24,02,56,15.20
2009,09,24,02,57,15.20
2009,09,24,02,58,15.20
2009,09,24,02,59,15.20
2009,09,24,03,00,15.20
2009,09,24,03,01,15.10
2009,09,24,03,02,15.10
2009,09,24,03,03,15.10
2009,09,24,03,04,15.10
2009,09,24,03,05,15.00
2009,09,24,03,06,15.00
2009,09,24,03,07,15.00
2009,09,24,03,08,15.00
2009,09,24,03,09,15.00
2009,09,24,03,10,14.90
2009,09,24,03,11,14.90
2009,09,24,03,12,14.90
2009,09,24,03,13,14.90
2009,09,24,03,14,14.80
2009,09,24,03,15,14.80
2009,09,24,03,16,14.80
2009,09,24,03,17,14.80
2009,09,24,03,18,14.80
2009,09,24,03,19,14.80
2009,09,24,03,20,14.80
2009,09,24,03,21,14.80
2009,09,24,03,22,14.80
2009,09,24,03,23,14.80
2009,09,24,03,24,14.90
2009,09,24,03,25,14.90
2009,09,24,03,26,14.90
2009,09,24,03,27,14.90
2009,09,24,03,28,14.80
2009,09,24,03,29,14.80
2009,09,24,03,30,14.90
2009,09,24,03,31,14.90
2009,09,24,03,32,14.90
2009,09,24,03,33,14.90
2009,09,24,03,34,14.90
2009,09,24,03,35,14.90
2009,09,24,03,36,14.90
2009,09,24,03,37,15.00
2009,09,24,03,38,15.00
2009,09,24,03,39,14.90
2009,09,24,03,40,14.90
2009,09,24,03,41,14.90
2009,09,24,03,42,14.90
2009,09,24,03,43,14.90
2009,09,24,03,44,14.90
2009,09,24,03,45,14.90
2009,09,24,03,46,14.80
2009,09,24,03,47,14.80
2009,09,24,03,48,14.80
2009,09,24,03,49,14.80
2009,09,24,03,50,14.80
2009,09,24,03,51,14.70
2009,09,24,03,52,14.70
2009,09,24,03,53,14.70
2009,09,24,03,54,14.70
2009,09,24,03,55,14.60
2009,09,24,03,56,14.60
2009,09,24,03,57,14.60
2009,09,24,03,58,14.60
2009,09,24,03,59,14.60
2009,09,24,04,00,14.60
2009,09,24,04,01,14.60
2009,09,24,04,02,14.60
2009,09,24,04,03,14.60
2009,09,24,04,05,14.60
2009,09,24,04,06,14.60
2009,09,24,04,07,14.60
2009,09,24,04,08,14.50
2009,09,24,04,09,14.50
2009,09,24,04,10,14.50
2009,09,24,04,11,14.40
2009,09,24,04,12,14.40
2009,09,24,04,13,14.40
2009,09,24,04,14,14.30
2009,09,24,04,15,14.30
2009,09,24,04,16,14.30
2009,09,24,04,17,14.20
2009,09,24,04,18,14.20
2009,09,24,04,19,14.20
2009,09,24,04,20,14.20
2009,09,24,04,21,14.20
2009,09,24,04,22,14.20
2009,09,24,04,23,14.20
2009,09,24,04,24,14.10
2009,09,24,04,25,14.10
2009,09,24,04,26,14.10
2009,09,24,04,27,14.10
2009,09,24,04,28,14.00
2009,09,24,04,29,14.00
2009,09,24,04,30,14.00
2009,09,24,04,31,14.00
2009,09,24,04,32,14.00
2009,09,24,04,33,14.00
2009,09,24,04,34,14.00
2009,09,24,04,35,14.00
2009,09,24,04,36,14.00
2009,09,24,04,37,14.00
2009,09,24,04,38,14.00
2009,09,24,04,39,14.00
2009,09,24,04,40,14.00
2009,09,24,04,41,14.00
2009,09,24,04,42,14.00
2009,09,24,04,43,14.00
2009,09,24,04,44,14.00
2009,09,24,04,45,14.00
2009,09,24,04,46,14.00
2009,09,24,04,47,14.00
2009,09,24,04,48,14.00
2009,09,24,04,49,14.00
2009,09,24,04,50,14.00
2009,09,24,04,51,13.90
2009,09,24,04,52,13.90
2009,09,24,04,53,13.90
2009,09,24,04,54,13.90
2009,09,24,04,55,13.90
2009,09,24,04,56,13.90
2009,09,24,04,57,13.80
2009,09,24,04,58,13.90
2009,09,24,04,59,13.90
2009,09,24,05,00,13.90
2009,09,24,05,01,13.80
2009,09,24,05,02,13.80
2009,09,24,05,03,13.80
2009,09,24,05,04,13.70
2009,09,24,05,05,13.70
2009,09,24,05,06,13.70
2009,09,24,05,07,13.70
2009,09,24,05,08,13.60
2009,09,24,05,09,13.60
2009,09,24,05,10,13.60
2009,09,24,05,11,13.60
2009,09,24,05,12,13.60
2009,09,24,05,13,13.70
2009,09,24,05,14,13.70
2009,09,24,05,15,13.70
2009,09,24,05,16,13.70
2009,09,24,05,17,13.70
2009,09,24,05,18,13.70
2009,09,24,05,19,13.70
2009,09,24,05,20,13.70
2009,09,24,05,21,13.70
2009,09,24,05,22,13.70
2009,09,24,05,23,13.70
2009,09,24,05,24,13.70
2009,09,24,05,25,13.70
2009,09,24,05,26,13.70
2009,09,24,05,27,13.60
2009,09,24,05,28,13.60
2009,09,24,05,29,13.60
2009,09,24,05,30,13.60
2009,09,24,05,31,13.60
2009,09,24,05,32,13.60
2009,09,24,05,33,13.60
2009,09,24,05,34,13.60
2009,09,24,05,35,13.60
2009,09,24,05,36,13.60
2009,09,24,05,37,13.50
2009,09,24,05,38,13.50
2009,09,24,05,39,13.50
2009,09,24,05,40,13.50
2009,09,24,05,41,13.40
2009,09,24,05,42,13.40
2009,09,24,05,43,13.40
2009,09,24,05,44,13.40
2009,09,24,05,45,13.30
2009,09,24,05,46,13.30
2009,09,24,05,47,13.30
2009,09,24,05,48,13.30
2009,09,24,05,49,13.30
2009,09,24,05,50,13.30
2009,09,24,05,51,13.30
2009,09,24,05,52,13.30
2009,09,24,05,53,13.30
2009,09,24,05,54,13.30
2009,09,24,05,55,13.30
2009,09,24,05,56,13.30
2009,09,24,05,57,13.30
2009,09,24,05,58,13.30
2009,09,24,05,59,13.30
2009,09,24,06,00,13.20
2009,09,24,06,01,13.20
2009,09,24,06,02,13.20
2009,09,24,06,03,13.20
2009,09,24,06,04,13.20
2009,09,24,06,05,13.20
2009,09,24,06,06,13.20
2009,09,24,06,07,13.20
2009,09,24,06,08,13.20
2009,09,24,06,09,13.20
2009,09,24,06,10,13.20
2009,09,24,06,11,13.20
2009,09,24,06,12,13.10
2009,09,24,06,13,13.10
2009,09,24,06,14,13.10
2009,09,24,06,15,13.20
2009,09,24,06,16,13.20
2009,09,24,06,17,13.20
2009,09,24,06,18,13.20
2009,09,24,06,19,13.20
2009,09,24,06,20,13.20
2009,09,24,06,21,13.20
2009,09,24,06,22,13.30
2009,09,24,06,23,13.30
2009,09,24,06,24,13.30
2009,09,24,06,25,13.30
2009,09,24,06,26,13.30
2009,09,24,06,27,13.30
2009,09,24,06,28,13.30
2009,09,24,06,29,13.30
2009,09,24,06,30,13.30
2009,09,24,06,31,13.30
2009,09,24,06,32,13.30
2009,09,24,06,33,13.30
2009,09,24,06,34,13.30
2009,09,24,06,35,13.30
2009,09,24,06,36,13.30
2009,09,24,06,37,13.30
2009,09,24,06,38,13.30
2009,09,24,06,39,13.20
2009,09,24,06,40,13.20
2009,09,24,06,41,13.20
2009,09,24,06,42,13.20
2009,09,24,06,43,13.20
2009,09,24,06,44,13.10
2009,09,24,06,45,13.10
2009,09,24,06,46,13.00
2009,09,24,06,47,13.00
2009,09,24,06,48,13.00
2009,09,24,06,49,12.90
2009,09,24,06,50,12.90
2009,09,24,06,51,12.80
2009,09,24,06,52,12.80
2009,09,24,06,53,12.80
2009,09,24,06,54,12.70
2009,09,24,06,55,12.70
2009,09,24,06,56,12.70
2009,09,24,06,57,12.60
2009,09,24,06,58,12.60
2009,09,24,06,59,12.50
2009,09,24,07,00,12.50
2009,09,24,07,01,12.40
2009,09,24,07,02,12.40
2009,09,24,07,03,12.30
2009,09,24,07,04,12.30
2009,09,24,07,05,12.30
2009,09,24,07,06,12.30
2009,09,24,07,07,12.20
2009,09,24,07,08,12.10
2009,09,24,07,09,12.00
2009,09,24,07,10,12.00
2009,09,24,07,11,11.90
2009,09,24,07,12,11.80
2009,09,24,07,13,11.70
2009,09,24,07,14,11.60
2009,09,24,07,15,11.60
2009,09,24,07,16,11.50
2009,09,24,07,17,11.40
2009,09,24,07,18,11.40
2009,09,24,07,19,11.30
2009,09,24,07,20,11.30
2009,09,24,07,21,11.20
2009,09,24,07,22,11.20
2009,09,24,07,23,11.10
2009,09,24,07,24,11.10
2009,09,24,07,25,11.10
2009,09,24,07,26,11.10
2009,09,24,07,27,10.90
2009,09,24,07,28,10.90
2009,09,24,07,29,10.90
2009,09,24,07,30,10.80
2009,09,24,07,31,10.70
2009,09,24,07,32,10.60
2009,09,24,07,33,10.60
2009,09,24,07,34,10.50
2009,09,24,07,35,10.40
2009,09,24,07,36,10.40
2009,09,24,07,37,10.30
2009,09,24,07,38,10.30
2009,09,24,07,39,10.30
2009,09,24,07,40,10.30
2009,09,24,07,41,10.30
2009,09,24,07,42,10.40
2009,09,24,07,43,10.40
2009,09,24,07,44,10.50
2009,09,24,07,45,10.60
2009,09,24,07,46,10.70
2009,09,24,07,47,10.90
2009,09,24,07,48,10.90
2009,09,24,07,49,11.00
2009,09,24,07,50,11.10
2009,09,24,07,51,11.20
2009,09,24,07,52,11.40
2009,09,24,07,53,11.40
2009,09,24,07,54,11.50
2009,09,24,07,55,11.60
2009,09,24,07,56,11.60
2009,09,24,07,57,11.70
2009,09,24,07,58,11.80
2009,09,24,07,59,12.00
2009,09,24,08,00,12.10
2009,09,24,08,01,12.20
2009,09,24,08,02,12.30
2009,09,24,08,03,12.40
2009,09,24,08,04,12.50
2009,09,24,08,05,12.60
2009,09,24,08,06,12.60
2009,09,24,08,07,12.70
2009,09,24,08,08,12.80
2009,09,24,08,09,12.80
2009,09,24,08,10,12.90
2009,09,24,08,11,12.90
2009,09,24,08,12,13.00
2009,09,24,08,13,13.00
2009,09,24,08,14,13.00
2009,09,24,08,15,13.10
2009,09,24,08,16,13.10
2009,09,24,08,17,13.10
2009,09,24,08,18,13.10
2009,09,24,08,19,13.20
2009,09,24,08,20,13.20
2009,09,24,08,21,13.20
2009,09,24,08,22,13.20
2009,09,24,08,23,13.20
2009,09,24,08,24,13.20
2009,09,24,08,25,13.20
2009,09,24,08,26,13.20
2009,09,24,08,27,13.20
2009,09,24,08,28,13.20
2009,09,24,08,29,13.20
2009,09,24,08,30,13.30
2009,09,24,08,31,13.30
2009,09,24,08,32,13.30
2009,09,24,08,33,13.30
2009,09,24,08,34,13.30
2009,09,24,08,35,13.30
2009,09,24,08,36,13.40
2009,09,24,08,37,13.40
2009,09,24,08,38,13.40
2009,09,24,08,39,13.50
2009,09,24,08,40,13.50
2009,09,24,08,41,13.50
2009,09,24,08,42,13.50
2009,09,24,08,43,13.60
2009,09,24,08,44,13.60
2009,09,24,08,45,13.60
2009,09,24,08,46,13.60
2009,09,24,08,47,13.60
2009,09,24,08,48,13.60
2009,09,24,08,49,13.60
2009,09,24,08,50,13.70
2009,09,24,08,51,13.70
2009,09,24,08,52,13.70
2009,09,24,08,53,13.70
2009,09,24,08,54,13.70
2009,09,24,08,55,13.70
2009,09,24,08,56,13.70
2009,09,24,08,57,13.70
2009,09,24,08,58,13.70
2009,09,24,08,59,13.70
2009,09,24,09,00,13.70
2009,09,24,09,01,13.70
2009,09,24,09,02,13.70
2009,09,24,09,03,13.80
2009,09,24,09,04,13.80
2009,09,24,09,05,13.80
2009,09,24,09,06,13.80
2009,09,24,09,07,13.80
2009,09,24,09,08,13.80
2009,09,24,09,09,13.80
2009,09,24,09,10,13.90
2009,09,24,09,11,13.90
2009,09,24,09,12,13.90
2009,09,24,09,13,13.90
2009,09,24,09,14,13.90
2009,09,24,09,15,13.90
2009,09,24,09,16,13.90
2009,09,24,09,17,14.00
2009,09,24,09,18,14.00
2009,09,24,09,19,14.00
2009,09,24,09,20,14.00
2009,09,24,09,21,14.00
2009,09,24,09,22,14.00
2009,09,24,09,23,14.00
2009,09,24,09,24,14.00
2009,09,24,09,25,14.00
2009,09,24,09,26,14.10
2009,09,24,09,27,14.10
2009,09,24,09,28,14.10
2009,09,24,09,29,14.20
2009,09,24,09,30,14.20
2009,09,24,09,31,14.20
2009,09,24,09,32,14.20
2009,09,24,09,33,14.20
2009,09,24,09,34,14.20
2009,09,24,09,35,14.20
2009,09,24,09,36,14.20
2009,09,24,09,37,14.20
2009,09,24,09,38,14.20
2009,09,24,09,39,14.20
2009,09,24,09,40,14.30
2009,09,24,09,41,14.30
2009,09,24,09,42,14.30
2009,09,24,09,43,14.30
2009,09,24,09,44,14.30
2009,09,24,09,45,14.30
2009,09,24,09,46,14.40
2009,09,24,09,47,14.40
2009,09,24,09,48,14.40
2009,09,24,09,49,14.50
2009,09,24,09,50,14.50
2009,09,24,09,51,14.50
2009,09,24,09,52,14.50
2009,09,24,09,53,14.50
2009,09,24,09,54,14.60
2009,09,24,09,55,14.60
2009,09,24,09,56,14.60
2009,09,24,09,57,14.60
2009,09,24,09,58,14.50
2009,09,24,09,59,14.50
2009,09,24,10,00,14.50
2009,09,24,10,01,14.50
2009,09,24,10,02,14.50
2009,09,24,10,03,14.50
2009,09,24,10,04,14.60
2009,09,24,10,05,14.60
2009,09,24,10,06,14.60
2009,09,24,10,07,14.60
2009,09,24,10,08,14.60
2009,09,24,10,09,14.70
2009,09,24,10,10,14.70
2009,09,24,10,11,14.70
2009,09,24,10,12,14.80
2009,09,24,10,13,14.80
2009,09,24,10,14,14.80
2009,09,24,10,15,14.80
2009,09,24,10,16,14.80
2009,09,24,10,17,14.80
2009,09,24,10,18,14.80
2009,09,24,10,19,14.80
2009,09,24,10,20,14.90
2009,09,24,10,21,14.90
2009,09,24,10,22,14.90
2009,09,24,10,23,15.00
2009,09,24,10,24,15.00
2009,09,24,10,25,15.00
2009,09,24,10,26,15.00
2009,09,24,10,27,15.00
2009,09,24,10,28,14.90
2009,09,24,10,29,14.90
2009,09,24,10,30,14.80
2009,09,24,10,31,14.70
2009,09,24,10,32,14.70
2009,09,24,10,33,14.70
2009,09,24,10,34,14.70
2009,09,24,10,35,14.70
2009,09,24,10,36,14.70
2009,09,24,10,37,14.70
2009,09,24,10,38,14.70
2009,09,24,10,39,14.80
2009,09,24,10,40,14.80
2009,09,24,10,41,14.80
2009,09,24,10,42,14.80
2009,09,24,10,43,14.80
2009,09,24,10,44,14.80
2009,09,24,10,45,14.90
2009,09,24,10,46,15.00
2009,09,24,10,47,15.10
2009,09,24,10,48,15.10
2009,09,24,10,49,15.10
2009,09,24,10,50,15.20
2009,09,24,10,51,15.20
2009,09,24,10,52,15.30
2009,09,24,10,53,15.30
2009,09,24,10,54,15.30
2009,09,24,10,55,15.30
2009,09,24,10,56,15.30
2009,09,24,10,57,15.30
2009,09,24,10,58,15.30
2009,09,24,10,59,15.30
2009,09,24,11,00,15.30
2009,09,24,11,01,15.30
2009,09,24,11,02,15.30
2009,09,24,11,03,15.30
2009,09,24,11,04,15.40
2009,09,24,11,05,15.40
2009,09,24,11,06,15.30
2009,09,24,11,07,15.30
2009,09,24,11,08,15.30
2009,09,24,11,09,15.30
2009,09,24,11,10,15.30
2009,09,24,11,11,15.30
2009,09,24,11,12,15.30
2009,09,24,11,13,15.30
2009,09,24,11,14,15.40
2009,09,24,11,15,15.40
2009,09,24,11,16,15.40
2009,09,24,11,17,15.40
2009,09,24,11,18,15.40
2009,09,24,11,19,15.30
2009,09,24,11,20,15.40
2009,09,24,11,21,15.50
2009,09,24,11,22,15.50
2009,09,24,11,23,15.50
2009,09,24,11,24,15.50
2009,09,24,11,25,15.60
2009,09,24,11,26,15.60
2009,09,24,11,27,15.70
2009,09,24,11,28,15.70
2009,09,24,11,29,15.80
2009,09,24,11,30,15.80
2009,09,24,11,31,15.80
2009,09,24,11,32,15.80
2009,09,24,11,33,15.80
2009,09,24,11,34,15.80
2009,09,24,11,35,15.80
2009,09,24,11,36,15.70
2009,09,24,11,37,15.70
2009,09,24,11,38,15.60
2009,09,24,11,39,15.70
2009,09,24,11,40,15.70
2009,09,24,11,41,15.70
2009,09,24,11,42,15.70
2009,09,24,11,43,15.70
2009,09,24,11,44,15.80
2009,09,24,11,45,15.80
2009,09,24,11,46,15.80
2009,09,24,11,47,15.80
2009,09,24,11,48,15.80
2009,09,24,11,49,15.80
2009,09,24,11,50,15.80
2009,09,24,11,51,15.80
2009,09,24,11,52,15.80
2009,09,24,11,53,15.80
2009,09,24,11,54,15.90
2009,09,24,11,55,15.90
2009,09,24,11,56,15.90
2009,09,24,11,57,16.10
2009,09,24,11,58,16.10
2009,09,24,11,59,16.10
2009,09,24,12,00,16.10
2009,09,24,12,01,16.10
2009,09,24,12,02,16.10
2009,09,24,12,03,16.20
2009,09,24,12,04,16.30
2009,09,24,12,05,16.40
2009,09,24,12,06,16.40
2009,09,24,12,07,16.50
2009,09,24,12,08,16.60
2009,09,24,12,09,16.40
2009,09,24,12,10,16.40
2009,09,24,12,11,16.30
2009,09,24,12,12,16.40
2009,09,24,12,13,16.40
2009,09,24,12,14,16.50
2009,09,24,12,15,16.60
2009,09,24,12,16,16.60
2009,09,24,12,17,16.60
2009,09,24,12,18,16.60
2009,09,24,12,19,16.60
2009,09,24,12,20,16.70
2009,09,24,12,21,16.70
2009,09,24,12,22,16.80
2009,09,24,12,23,16.90
2009,09,24,12,24,16.90
2009,09,24,12,25,16.90
2009,09,24,12,26,16.90
2009,09,24,12,27,16.90
2009,09,24,12,28,16.80
2009,09,24,12,29,16.80
2009,09,24,12,30,16.70
2009,09,24,12,31,16.70
2009,09,24,12,32,16.70
2009,09,24,12,33,16.70
2009,09,24,12,34,16.70
2009,09,24,12,35,16.70
2009,09,24,12,36,16.80
2009,09,24,12,37,16.80
2009,09,24,12,38,16.90
2009,09,24,12,39,16.90
2009,09,24,12,40,16.90
2009,09,24,12,41,16.90
2009,09,24,12,42,17.00
2009,09,24,12,43,17.00
2009,09,24,12,44,17.00
2009,09,24,12,45,17.00
2009,09,24,12,46,16.90
2009,09,24,12,47,16.90
2009,09,24,12,48,17.00
2009,09,24,12,49,17.10
2009,09,24,12,50,17.20
2009,09,24,12,51,17.30
2009,09,24,12,52,17.30
2009,09,24,12,53,17.40
2009,09,24,12,54,17.50
2009,09,24,12,55,17.50
2009,09,24,12,56,17.60
2009,09,24,12,57,17.70
2009,09,24,12,58,17.70
2009,09,24,12,59,17.70
2009,09,24,13,00,17.70
2009,09,24,13,01,17.80
2009,09,24,13,02,17.70
2009,09,24,13,03,17.50
2009,09,24,13,04,17.30
2009,09,24,13,05,17.20
2009,09,24,13,06,17.00
2009,09,24,13,07,16.90
2009,09,24,13,08,16.90
2009,09,24,13,09,16.90
2009,09,24,13,10,16.90
2009,09,24,13,11,16.90
2009,09,24,13,12,17.00
2009,09,24,13,13,17.00
2009,09,24,13,14,17.00
2009,09,24,13,15,16.90
2009,09,24,13,16,16.90
2009,09,24,13,17,16.70
2009,09,24,13,18,16.60
2009,09,24,13,19,16.70
2009,09,24,13,20,16.70
2009,09,24,13,21,16.70
2009,09,24,13,22,16.90
2009,09,24,13,23,16.90
2009,09,24,13,24,16.90
2009,09,24,13,25,17.00
2009,09,24,13,26,16.80
2009,09,24,13,27,16.70
2009,09,24,13,28,16.70
2009,09,24,13,29,16.70
2009,09,24,13,30,16.90
2009,09,24,13,31,17.00
2009,09,24,13,32,17.00
2009,09,24,13,33,17.10
2009,09,24,13,34,17.30
2009,09,24,13,35,17.30
2009,09,24,13,36,17.30
2009,09,24,13,37,17.30
2009,09,24,13,38,17.30
2009,09,24,13,39,17.30
2009,09,24,13,40,17.30
2009,09,24,13,41,17.30
2009,09,24,13,42,17.30
2009,09,24,13,43,17.30
2009,09,24,13,44,17.30
2009,09,24,13,45,17.30
2009,09,24,13,46,17.30
2009,09,24,13,47,17.30
2009,09,24,13,48,17.30
2009,09,24,13,49,17.30
2009,09,24,13,50,17.30
2009,09,24,13,51,17.30
2009,09,24,13,52,17.30
2009,09,24,13,53,17.30
2009,09,24,13,54,17.30
2009,09,24,13,55,17.30
2009,09,24,13,56,17.30
2009,09,24,13,57,17.30
2009,09,24,13,58,17.30
2009,09,24,13,59,17.30
2009,09,24,14,00,17.30
2009,09,24,14,01,17.30
2009,09,24,14,02,17.30
2009,09,24,14,03,17.30
2009,09,24,14,04,17.30
2009,09,24,14,05,17.30
2009,09,24,14,06,17.30
2009,09,24,14,07,17.30
2009,09,24,14,08,17.30
2009,09,24,14,09,17.40
2009,09,24,14,10,17.40
2009,09,24,14,11,17.40
2009,09,24,14,12,17.40
2009,09,24,14,13,17.40
2009,09,24,14,14,17.50
2009,09,24,14,15,17.50
2009,09,24,14,16,17.50
2009,09,24,14,17,17.50
2009,09,24,14,18,17.40
2009,09,24,14,19,17.40
2009,09,24,14,20,17.50
2009,09,24,14,21,17.50
2009,09,24,14,22,17.70
2009,09,24,14,23,17.80
2009,09,24,14,24,17.90
2009,09,24,14,25,17.90
2009,09,24,14,26,17.90
2009,09,24,14,27,17.90
2009,09,24,14,28,17.90
2009,09,24,14,29,17.90
2009,09,24,14,30,17.90
2009,09,24,14,31,17.90
2009,09,24,14,32,17.90
2009,09,24,14,33,17.90
2009,09,24,14,34,18.10
2009,09,24,14,35,18.10
2009,09,24,14,36,18.10
2009,09,24,14,37,18.20
2009,09,24,14,38,18.20
2009,09,24,14,39,18.20
2009,09,24,14,40,18.20
2009,09,24,14,41,18.20
2009,09,24,14,42,18.20
2009,09,24,14,43,18.20
2009,09,24,14,44,18.20
2009,09,24,14,45,18.20
2009,09,24,14,46,18.20
2009,09,24,14,47,18.20
2009,09,24,14,48,18.20
2009,09,24,14,49,18.30
2009,09,24,14,50,18.40
2009,09,24,14,51,18.50
2009,09,24,14,52,18.50
2009,09,24,14,53,18.40
2009,09,24,14,54,18.50
2009,09,24,14,55,18.50
2009,09,24,14,56,18.50
2009,09,24,14,57,18.60
2009,09,24,14,58,18.60
2009,09,24,14,59,18.70
2009,09,24,15,00,18.80
2009,09,24,15,01,18.90
2009,09,24,15,02,18.90
2009,09,24,15,03,18.80
2009,09,24,15,04,18.70
2009,09,24,15,05,18.60
2009,09,24,15,06,18.50
2009,09,24,15,07,18.50
2009,09,24,15,08,18.60
2009,09,24,15,09,18.60
2009,09,24,15,10,18.50
2009,09,24,15,11,18.50
2009,09,24,15,12,18.50
2009,09,24,15,13,18.40
2009,09,24,15,14,18.40
2009,09,24,15,15,18.40
2009,09,24,15,16,18.30
2009,09,24,15,17,18.30
2009,09,24,15,18,18.30
2009,09,24,15,19,18.40
2009,09,24,15,20,18.40
2009,09,24,15,21,18.40
2009,09,24,15,22,18.40
2009,09,24,15,23,18.50
2009,09,24,15,24,18.50
2009,09,24,15,25,18.50
2009,09,24,15,26,18.50
2009,09,24,15,27,18.50
2009,09,24,15,28,18.50
2009,09,24,15,29,18.50
2009,09,24,15,30,18.50
2009,09,24,15,31,18.50
2009,09,24,15,32,18.60
2009,09,24,15,33,18.70
2009,09,24,15,34,18.60
2009,09,24,15,35,18.60
2009,09,24,15,36,18.60
2009,09,24,15,37,18.60
2009,09,24,15,38,18.60
2009,09,24,15,39,18.70
2009,09,24,15,40,18.80
2009,09,24,15,41,18.90
2009,09,24,15,42,18.90
2009,09,24,15,43,19.00
2009,09,24,15,44,19.10
2009,09,24,15,45,19.10
2009,09,24,15,46,19.10
2009,09,24,15,47,19.10
2009,09,24,15,48,19.10
2009,09,24,15,49,19.10
2009,09,24,15,50,19.10
2009,09,24,15,51,19.10
2009,09,24,15,52,19.10
2009,09,24,15,53,19.00
2009,09,24,15,54,18.90
2009,09,24,15,55,18.90
2009,09,24,15,56,18.80
2009,09,24,15,57,18.70
2009,09,24,15,58,18.70
2009,09,24,15,59,18.70
2009,09,24,16,00,18.70
2009,09,24,16,01,18.70
2009,09,24,16,02,18.70
2009,09,24,16,03,18.70
2009,09,24,16,04,18.70
2009,09,24,16,05,18.80
2009,09,24,16,06,18.80
2009,09,24,16,07,18.80
2009,09,24,16,08,18.80
2009,09,24,16,09,18.80
2009,09,24,16,10,18.80
2009,09,24,16,11,18.90
2009,09,24,16,12,18.90
2009,09,24,16,13,18.90
2009,09,24,16,14,18.90
2009,09,24,16,15,18.90
2009,09,24,16,16,18.90
2009,09,24,16,17,19.00
2009,09,24,16,18,19.10
2009,09,24,16,19,19.10
2009,09,24,16,20,19.10
2009,09,24,16,21,19.10
2009,09,24,16,22,19.10
2009,09,24,16,23,19.20
2009,09,24,16,24,19.30
2009,09,24,16,25,19.30
2009,09,24,16,26,19.30
2009,09,24,16,27,19.40
2009,09,24,16,28,19.40
2009,09,24,16,29,19.50
2009,09,24,16,30,19.50
2009,09,24,16,31,19.50
2009,09,24,16,32,19.50
2009,09,24,16,33,19.50
2009,09,24,16,34,19.50
2009,09,24,16,35,19.60
2009,09,24,16,36,19.60
2009,09,24,16,37,19.60
2009,09,24,16,38,19.70
2009,09,24,16,39,19.70
2009,09,24,16,40,19.60
2009,09,24,16,41,19.60
2009,09,24,16,42,19.70
2009,09,24,16,43,19.70
2009,09,24,16,44,19.70
2009,09,24,16,45,19.60
2009,09,24,16,46,19.70
2009,09,24,16,47,19.60
2009,09,24,16,48,19.60
2009,09,24,16,49,19.50
2009,09,24,16,50,19.50
2009,09,24,16,51,19.60
2009,09,24,16,52,19.60
2009,09,24,16,53,19.60
2009,09,24,16,54,19.60
2009,09,24,16,55,19.70
2009,09,24,16,56,19.70
2009,09,24,16,57,19.70
2009,09,24,16,58,19.60
2009,09,24,16,59,19.60
2009,09,24,17,00,19.50
2009,09,24,17,01,19.50
2009,09,24,17,02,19.50
2009,09,24,17,03,19.50
2009,09,24,17,04,19.50
2009,09,24,17,05,19.50
2009,09,24,17,06,19.50
2009,09,24,17,07,19.50
2009,09,24,17,08,19.40
2009,09,24,17,09,19.40
2009,09,24,17,10,19.50
2009,09,24,17,11,19.50
2009,09,24,17,12,19.60
2009,09,24,17,13,19.70
2009,09,24,17,14,19.70
2009,09,24,17,15,19.70
2009,09,24,17,16,19.70
2009,09,24,17,17,19.70
2009,09,24,17,18,19.70
2009,09,24,17,19,19.70
2009,09,24,17,20,19.70